DW7040 Weather Reports


Display with metric or nautical units.
time (UTC)temp
F
wind
direction
speed
MPH
gust
MPH
rain 1hr
in
rain 24hr
in
rain mn
in
humidity
%
barometer
mb
20260902160032 0 268 0.0 0.0 0.00 0.00 0.00 1002.0
20260902154515 0 264 0.0 0.0 0.00 0.00 0.00 1002.0
20260902153039 0 265 0.0 0.0 0.00 0.00 0.00 1002.1
20260902151532 0 266 0.0 0.0 0.00 0.00 0.00 1002.1
20260902150014 0 264 0.0 0.0 0.00 0.00 0.00 1001.9
20260902144530 0 265 0.0 0.0 0.00 0.00 0.00 1002.1
20260902143004 0 261 0.0 0.0 0.00 0.00 0.00 1002.1
20260902141502 0 264 0.0 0.0 0.00 0.00 0.00 1002.0
20260902140058 0 264 0.0 0.0 0.00 0.00 0.00 1002.0
20260902134605 0 258 0.0 0.0 0.00 0.00 0.00 1001.9
20260902133055 0 254 0.0 0.0 0.00 0.00 0.00 1002.0
20260902131526 0 252 0.0 0.0 0.00 0.00 0.00 1002.0
20260902130035 0 245 0.0 0.0 0.00 0.00 0.00 1002.0
20260902124535 0 241 0.0 0.0 0.00 0.00 0.00 1002.1
20260902123027 0 239 0.0 0.0 0.00 0.00 0.00 1002.0
20260902121534 0 243 0.0 0.0 0.00 0.00 0.00 1002.2
20260902120031 0 241 0.0 0.0 0.00 0.00 0.00 1002.2
20260902114505 0 241 0.0 0.0 0.00 0.00 0.00 1002.3
20260902113040 0 242 0.0 0.0 0.00 0.00 0.00 1002.4
20260902111520 0 242 0.0 0.0 0.00 0.00 0.00 1002.6
20260902110040 0 242 0.0 0.0 0.00 0.00 0.00 1002.8
20260902104534 0 240 0.0 0.0 0.00 0.00 0.00 1003.1
20260902103042 0 241 0.0 0.0 0.00 0.00 0.00 1003.2
20260902101538 0 240 0.0 0.0 0.00 0.00 0.00 1003.5
20260902094529 0 238 0.0 0.0 0.00 0.00 0.00 1003.9
20260902093022 0 237 0.0 0.0 0.00 0.00 0.00 1004.0
20260902091542 0 238 0.0 0.0 0.00 0.00 0.00 1004.2
20260902090104 0 235 0.0 0.0 0.00 0.00 0.00 1004.3
20260902084543 0 242 0.0 0.0 0.00 0.00 0.00 1004.5
20260902083034 0 242 0.0 0.0 0.00 0.00 0.00 1004.7
20260902081534 0 243 0.0 0.0 0.00 0.00 0.00 1004.7
20260902080030 0 242 0.0 0.0 0.00 0.00 0.00 1004.9
20260902074528 0 241 0.0 0.0 0.00 0.00 0.00 1004.9
20260902073036 0 242 0.0 0.0 0.00 0.00 0.00 1005.0
20260902071545 0 242 0.0 0.0 0.00 0.00 0.00 1005.1
20260902070010 0 240 0.0 0.0 0.00 0.00 0.00 1005.3
20260902064513 0 0.0 0.0 0.00 0.00 0.00 1005.3
20260902063009 0 0.0 0.0 0.00 0.00 0.00 1005.5
20260902061605 0 0.0 0.0 0.00 0.00 0.00 1005.5
20260902060022 0 0.0 0.0 0.00 0.00 0.00 1005.4
20260902053028 0 0.0 0.0 0.00 0.00 0.00 1005.7
20260902051529 0 0.0 0.0 0.00 0.00 0.00 1005.9
20260902050029 0 0.0 0.0 0.00 0.00 0.00 1005.8
20260902044517 0 0.0 0.0 0.00 0.00 0.00 1005.9
20260902043022 0 0.0 0.0 0.00 0.00 0.00 1006.0
20260902041543 0 0.0 0.0 0.00 0.00 0.00 1006.2
20260902034542 0 0.0 0.0 0.00 0.00 0.00 1006.4
20260902033042 0 0.0 0.0 0.00 0.00 0.00 1006.5
20260902030013 0 0.0 0.0 0.00 0.00 0.00 1006.8
20260902024540 0 0.0 0.0 0.00 0.00 0.00 1006.9
20260902023036 0 0.0 0.0 0.00 0.00 0.00 1006.8
20260902021506 0 0.0 0.0 0.00 0.00 0.00 1006.9
20260902020043 0 0.0 0.0 0.00 0.00 0.00 1007.1
20260902014539 0 0.0 0.0 0.00 0.00 0.00 1007.2
20260902013009 0 243 0.0 0.0 0.00 0.00 0.00 1007.3
20260902011528 0 243 0.0 0.0 0.00 0.00 0.00 1007.3
20260902010009 0 243 0.0 0.0 0.00 0.00 0.00 1007.3
20260902004548 0 243 0.0 0.0 0.00 0.00 0.00 1007.5
20260902003034 0 242 0.0 0.0 0.00 0.00 0.00 1007.4
20260902001538 0 242 0.0 0.0 0.00 0.00 0.00 1007.5
20260902000033 0 243 0.0 0.0 0.00 0.00 0.00 1007.5
20260901234509 0 242 0.0 0.0 0.00 0.00 0.00 1007.7
20260901233024 0 242 0.0 0.0 0.00 0.00 0.00 1007.6
20260901231547 0 243 0.0 0.0 0.00 0.00 0.00 1007.7
20260901230036 0 242 0.0 0.0 0.00 0.00 0.00 1007.9
20260901224600 0 242 0.0 0.0 0.00 0.00 0.00 1007.8
20260901223056 0 243 0.0 0.0 0.00 0.00 0.00 1007.8
20260901221519 0 242 0.0 0.0 0.00 0.00 0.00 1007.8
20260901220045 0 242 0.0 0.0 0.00 0.00 0.00 1007.7
20260901214518 0 242 0.0 0.0 0.00 0.00 0.00 1007.5
20260901213014 0 242 0.0 0.0 0.00 0.00 0.00 1007.7
20260901211521 0 242 0.0 0.0 0.00 0.00 0.00 1007.8
20260901210043 0 243 0.0 0.0 0.00 0.00 0.00 1007.7
20260901204540 0 242 0.0 0.0 0.00 0.00 0.00 1007.9
20260901203044 0 242 0.0 0.0 0.00 0.00 0.00 1007.9
20260901201531 0 243 0.0 0.0 0.00 0.00 0.00 1008.0
20260901200040 0 242 0.0 0.0 0.00 0.00 0.00 1008.0
20260901194555 0 242 0.0 0.0 0.00 0.00 0.00 1008.0
20260901193036 0 242 0.0 0.0 0.00 0.00 0.00 1008.0
20260901191534 0 242 0.0 0.0 0.00 0.00 0.00 1007.9
20260901190029 0 242 0.0 0.0 0.00 0.00 0.00 1007.7
20260901184512 0 242 0.0 0.0 0.00 0.00 0.00 1007.7
20260901183043 0 243 0.0 0.0 0.00 0.00 0.00 1007.6
20260901181537 0 241 0.0 0.0 0.00 0.00 0.00 1007.7
20260901180027 0 242 0.0 0.0 0.00 0.00 0.00 1007.7
20260901174525 0 242 0.0 0.0 0.00 0.00 0.00 1007.7
20260901173050 0 242 0.0 0.0 0.00 0.00 0.00 1007.8
20260901171527 0 243 0.0 0.0 0.00 0.00 0.00 1007.8
20260901170048 0 242 0.0 0.0 0.00 0.00 0.00 1007.8
20260901164546 0 243 0.0 0.0 0.00 0.00 0.00 1007.7
20260901161606 0 242 0.0 0.0 0.00 0.00 0.00 1007.8